When you browse on this site, cookies collect data to enhance your experience and personalize the content and advertising you see.
Visit our Privacy Policy to learn more. By continuing to use the site, you agree to this use of cookies and data.

Hourly Weather Oktemcy

Today, 3 July, Friday

Time Temperature Precipitation Wind Pressure Humidity
00:00 +18°C° 0 mm 2 mps 742 mmHg 55%
01:00 +18°C° 0 mm 2 mps 742 mmHg 58%
02:00 +17°C° 0 mm 2 mps 741 mmHg 61%
03:00 +17°C° 0 mm 2 mps 741 mmHg 64%
04:00 +18°C° 0 mm 3 mps 741 mmHg 60%
05:00 +19°C° 0 mm 3 mps 741 mmHg 56%
06:00 +20°C° 0 mm 4 mps 741 mmHg 52%
07:00 +21°C° 0 mm 5 mps 741 mmHg 48%
08:00 +22°C° 0 mm 5 mps 740 mmHg 45%
09:00 +23°C° 0 mm 6 mps 740 mmHg 41%
10:00 +23°C° 0.2 mm 6 mps 740 mmHg 42%
11:00 +23°C° 0.2 mm 6 mps 740 mmHg 42%
12:00 +23°C° 0.2 mm 6 mps 739 mmHg 43%
13:00 +23°C° 0.1 mm 6 mps 739 mmHg 43%
14:00 +23°C° 0.1 mm 6 mps 739 mmHg 42%
15:00 +23°C° 0.1 mm 6 mps 739 mmHg 42%
16:00 +22°C° 0 mm 6 mps 739 mmHg 45%
17:00 +22°C° 0 mm 6 mps 739 mmHg 48%
18:00 +21°C° 0 mm 6 mps 739 mmHg 51%
19:00 +20°C° 0 mm 5 mps 739 mmHg 55%
20:00 +19°C° 0 mm 4 mps 739 mmHg 59%
21:00 +18°C° 0 mm 3 mps 739 mmHg 62%
22:00 +17°C° 0 mm 3 mps 739 mmHg 66%
23:00 +16°C° 0 mm 3 mps 739 mmHg 69%

Tomorrow, 4 July, Saturday

Time Temperature Precipitation Wind Pressure Humidity
00:00 +14°C° 0 mm 3 mps 739 mmHg 72%
01:00 +14°C° 0 mm 3 mps 739 mmHg 73%
02:00 +14°C° 0 mm 3 mps 739 mmHg 74%
03:00 +13°C° 0 mm 3 mps 738 mmHg 75%
04:00 +14°C° 0 mm 4 mps 738 mmHg 74%
05:00 +14°C° 0 mm 4 mps 738 mmHg 72%
06:00 +15°C° 0 mm 4 mps 738 mmHg 71%
07:00 +17°C° 0 mm 4 mps 738 mmHg 66%
08:00 +18°C° 0 mm 4 mps 738 mmHg 61%
09:00 +19°C° 0 mm 4 mps 738 mmHg 56%
10:00 +19°C° 0.2 mm 4 mps 738 mmHg 57%
11:00 +20°C° 0.2 mm 4 mps 738 mmHg 57%
12:00 +20°C° 0.2 mm 4 mps 737 mmHg 57%
13:00 +20°C° 0.1 mm 4 mps 737 mmHg 54%
14:00 +20°C° 0.1 mm 4 mps 737 mmHg 51%
15:00 +21°C° 0.1 mm 3 mps 737 mmHg 48%
16:00 +20°C° 0 mm 3 mps 737 mmHg 52%
17:00 +19°C° 0 mm 3 mps 737 mmHg 55%
18:00 +19°C° 0 mm 4 mps 737 mmHg 59%
19:00 +18°C° 0.1 mm 3 mps 738 mmHg 66%
20:00 +16°C° 0.1 mm 3 mps 738 mmHg 73%
21:00 +15°C° 0.1 mm 2 mps 738 mmHg 80%
22:00 +15°C° 0.1 mm 2 mps 738 mmHg 80%
23:00 +14°C° 0.1 mm 3 mps 738 mmHg 79%

Day after tomorrow, 5 July, Sunday

Time Temperature Precipitation Wind Pressure Humidity
00:00 +13°C° 0.1 mm 3 mps 738 mmHg 78%
01:00 +13°C° 0.1 mm 3 mps 738 mmHg 79%
02:00 +14°C° 0.1 mm 2 mps 739 mmHg 79%
03:00 +14°C° 0.1 mm 2 mps 739 mmHg 80%
04:00 +14°C° 0.1 mm 2 mps 739 mmHg 81%
05:00 +14°C° 0.1 mm 1 mps 739 mmHg 82%
06:00 +14°C° 0.1 mm 1 mps 739 mmHg 83%
07:00 +15°C° 0.1 mm 1 mps 739 mmHg 78%
08:00 +16°C° 0.1 mm 1 mps 739 mmHg 73%
09:00 +18°C° 0.1 mm 1 mps 739 mmHg 68%
10:00 +19°C° 0.3 mm 1 mps 739 mmHg 63%
11:00 +20°C° 0.3 mm 1 mps 739 mmHg 59%
12:00 +21°C° 0.3 mm 1 mps 739 mmHg 54%
13:00 +21°C° 0.1 mm 1 mps 739 mmHg 54%
14:00 +21°C° 0.1 mm 1 mps 739 mmHg 54%
15:00 +21°C° 0.1 mm 1 mps 740 mmHg 54%
16:00 +21°C° 0.1 mm 1 mps 740 mmHg 56%
17:00 +20°C° 0.1 mm 1 mps 740 mmHg 58%
18:00 +20°C° 0.1 mm 1 mps 740 mmHg 60%
19:00 +18°C° 0.1 mm 2 mps 740 mmHg 63%
20:00 +16°C° 0.1 mm 2 mps 740 mmHg 66%
21:00 +15°C° 0.1 mm 2 mps 740 mmHg 69%
22:00 +14°C° 0 mm 2 mps 741 mmHg 71%
23:00 +13°C° 0 mm 1 mps 741 mmHg 73%

6 July, Monday

Time Temperature Precipitation Wind Pressure Humidity
00:00 +13°C° 0 mm 1 mps 741 mmHg 74%
01:00 +12°C° 0 mm 1 mps 741 mmHg 76%
02:00 +11°C° 0 mm 1 mps 742 mmHg 78%
03:00 +10°C° 0 mm 1 mps 742 mmHg 80%
04:00 +12°C° 0 mm 1 mps 742 mmHg 76%
05:00 +13°C° 0 mm 1 mps 742 mmHg 73%
06:00 +14°C° 0 mm 1 mps 742 mmHg 69%
07:00 +15°C° 0 mm 1 mps 742 mmHg 60%
08:00 +17°C° 0 mm 2 mps 743 mmHg 51%
09:00 +19°C° 0 mm 2 mps 743 mmHg 42%
10:00 +19°C° 0 mm 2 mps 743 mmHg 40%
11:00 +20°C° 0 mm 2 mps 743 mmHg 39%
12:00 +20°C° 0 mm 2 mps 743 mmHg 37%
13:00 +20°C° 0 mm 2 mps 743 mmHg 36%
14:00 +21°C° 0 mm 2 mps 743 mmHg 36%
15:00 +21°C° 0 mm 2 mps 743 mmHg 35%
16:00 +21°C° 0 mm 2 mps 743 mmHg 36%
17:00 +21°C° 0 mm 2 mps 743 mmHg 37%
18:00 +22°C° 0 mm 1 mps 744 mmHg 38%
19:00 +20°C° 0 mm 1 mps 744 mmHg 44%
20:00 +18°C° 0 mm 1 mps 744 mmHg 51%
21:00 +16°C° 0 mm 1 mps 744 mmHg 58%
22:00 +14°C° 0 mm 1 mps 744 mmHg 63%
23:00 +12°C° 0 mm 1 mps 745 mmHg 68%

7 July, Tuesday

Time Temperature Precipitation Wind Pressure Humidity
00:00 +11°C° 0 mm 1 mps 745 mmHg 73%
01:00 +9°C° 0 mm 0 mps 745 mmHg 75%
02:00 +9°C° 0 mm 0 mps 745 mmHg 78%
03:00 +8°C° 0 mm 0 mps 745 mmHg 80%
04:00 +10°C° 0 mm 0 mps 745 mmHg 74%
05:00 +12°C° 0 mm 0 mps 745 mmHg 69%
06:00 +13°C° 0 mm 0 mps 746 mmHg 63%
07:00 +15°C° 0 mm 0 mps 746 mmHg 57%
08:00 +17°C° 0 mm 0 mps 745 mmHg 51%
09:00 +19°C° 0 mm 0 mps 745 mmHg 45%
10:00 +20°C° 0 mm 0 mps 745 mmHg 42%
11:00 +21°C° 0 mm 0 mps 745 mmHg 38%
12:00 +22°C° 0 mm 0 mps 744 mmHg 35%
13:00 +24°C° 0 mm 1 mps 744 mmHg 36%
14:00 +23°C° 0 mm 1 mps 744 mmHg 37%
15:00 +23°C° 0 mm 1 mps 744 mmHg 38%
16:00 +23°C° 0 mm 1 mps 744 mmHg 40%
17:00 +22°C° 0 mm 1 mps 744 mmHg 41%
18:00 +22°C° 0 mm 1 mps 744 mmHg 43%
19:00 +20°C° 0 mm 1 mps 744 mmHg 49%
20:00 +18°C° 0 mm 2 mps 744 mmHg 56%
21:00 +16°C° 0 mm 2 mps 744 mmHg 62%
22:00 +14°C° 0 mm 2 mps 744 mmHg 69%
23:00 +13°C° 0 mm 1 mps 744 mmHg 75%

8 July, Wednesday

Time Temperature Precipitation Wind Pressure Humidity
00:00 +10°C° 0 mm 0 mps 744 mmHg 81%
01:00 +11°C° 0.1 mm 1 mps 744 mmHg 84%
02:00 +10°C° 0.1 mm 1 mps 744 mmHg 87%
03:00 +10°C° 0.1 mm 1 mps 744 mmHg 89%
04:00 +11°C° 0 mm 1 mps 744 mmHg 86%
05:00 +12°C° 0 mm 1 mps 744 mmHg 82%
06:00 +13°C° 0 mm 1 mps 744 mmHg 78%
07:00 +15°C° 0 mm 1 mps 744 mmHg 68%
08:00 +18°C° 0 mm 1 mps 744 mmHg 59%
09:00 +19°C° 0 mm 2 mps 744 mmHg 49%
10:00 +20°C° 0 mm 2 mps 744 mmHg 47%
11:00 +21°C° 0 mm 3 mps 744 mmHg 46%
12:00 +21°C° 0 mm 4 mps 743 mmHg 44%
13:00 +22°C° 0.1 mm 4 mps 743 mmHg 45%
14:00 +22°C° 0.1 mm 3 mps 743 mmHg 45%
15:00 +22°C° 0.1 mm 3 mps 743 mmHg 46%
16:00 +21°C° 0.2 mm 3 mps 743 mmHg 53%
17:00 +19°C° 0.2 mm 3 mps 742 mmHg 61%
18:00 +18°C° 0.2 mm 3 mps 742 mmHg 69%
19:00 +17°C° 0.4 mm 2 mps 742 mmHg 76%
20:00 +16°C° 0.4 mm 2 mps 742 mmHg 83%
21:00 +15°C° 0.4 mm 1 mps 742 mmHg 91%
22:00 +14°C° 1 mm 1 mps 741 mmHg 93%
23:00 +14°C° 1 mm 1 mps 741 mmHg 96%
Show more